BAW2289 EGKK-LEPA

Flight info

Callsign BAW2289
Flight time 1h 48m
Altitude 23000
Route SFD Y47 BENBO/N0483F330 UY47 DRAKE L151 SITET UN859 SOPIL DCT BALAN DCT EVPOK DCT NARAK DCT GAI DCT LOMRA DCT ROCAN DCT IBRAP DCT LUKEV DCT LORES
Aircraft B77W/H-SDE1E2E3FGHIJ2J3J4J5M1RWXY/LB1D1

Departure

Time 2026-05-04 12:45
Airport London Gatwick Airport (EGKK)

Arrival

Time 2026-05-04 14:33
Airport Palma de Mallorca Airport (LEPA)
Time Latitude Longitude Altitude Speed Heading
2026-05-04 11:55 51.15875 -0.16923 218 ft 0 kts 129°
2026-05-04 12:27 51.15885 -0.16943 221 ft 4 kts 129°
2026-05-04 12:27 51.15902 -0.16975 222 ft 3 kts 129°
2026-05-04 12:27 51.15916 -0.17000 222 ft 4 kts 149°
2026-05-04 12:27 51.15936 -0.17007 222 ft 4 kts 221°
2026-05-04 12:28 51.15952 -0.16976 223 ft 4 kts 236°
2026-05-04 12:28 51.15961 -0.16954 220 ft 0 kts 236°
2026-05-04 12:30 51.15960 -0.16955 219 ft 0 kts 236°
2026-05-04 12:30 51.15948 -0.16984 223 ft 4 kts 233°
2026-05-04 12:30 51.15932 -0.17012 220 ft 4 kts 224°
2026-05-04 12:31 51.15911 -0.17038 222 ft 4 kts 213°
2026-05-04 12:31 51.15884 -0.17059 218 ft 4 kts 202°
2026-05-04 12:31 51.15852 -0.17076 214 ft 7 kts 201°
2026-05-04 12:31 51.15802 -0.17212 217 ft 23 kts 257°
2026-05-04 12:32 51.15760 -0.17507 218 ft 28 kts 257°
2026-05-04 12:32 51.15697 -0.17964 214 ft 0 kts 258°
2026-05-04 12:32 51.15696 -0.17973 214 ft 4 kts 258°
2026-05-04 12:33 51.15689 -0.18025 219 ft 5 kts 258°
2026-05-04 12:33 51.15681 -0.18085 214 ft 6 kts 258°
2026-05-04 12:33 51.15672 -0.18151 216 ft 6 kts 258°
2026-05-04 12:33 51.15660 -0.18223 218 ft 7 kts 255°
2026-05-04 12:34 51.15646 -0.18309 213 ft 9 kts 252°
2026-05-04 12:34 51.15587 -0.18347 219 ft 13 kts 173°
2026-05-04 12:34 51.15479 -0.18305 214 ft 19 kts 166°
2026-05-04 12:34 51.15328 -0.18252 217 ft 24 kts 168°
2026-05-04 12:35 51.15185 -0.18202 219 ft 14 kts 167°
2026-05-04 12:35 51.15117 -0.18196 213 ft 9 kts 210°
2026-05-04 12:35 51.15096 -0.18299 213 ft 12 kts 257°
2026-05-04 12:35 51.15071 -0.18478 216 ft 22 kts 257°
2026-05-04 12:36 51.15031 -0.18777 214 ft 33 kts 258°
2026-05-04 12:36 51.14978 -0.19175 216 ft 41 kts 257°
2026-05-04 12:36 51.14911 -0.19660 220 ft 48 kts 257°
2026-05-04 12:36 51.14841 -0.20160 218 ft 32 kts 257°
2026-05-04 12:37 51.14793 -0.20500 217 ft 30 kts 257°
2026-05-04 12:37 51.14751 -0.20816 215 ft 27 kts 258°
2026-05-04 12:37 51.14719 -0.21052 215 ft 12 kts 258°
2026-05-04 12:37 51.14706 -0.21142 213 ft 6 kts 257°
2026-05-04 12:38 51.14703 -0.21166 212 ft 2 kts 257°
2026-05-04 12:38 51.14700 -0.21188 212 ft 0 kts 257°
2026-05-04 12:40 51.14698 -0.21195 209 ft 4 kts 257°
2026-05-04 12:40 51.14690 -0.21253 215 ft 6 kts 257°
2026-05-04 12:40 51.14676 -0.21314 214 ft 6 kts 231°
2026-05-04 12:40 51.14648 -0.21332 215 ft 1 kts 184°
2026-05-04 12:41 51.14645 -0.21330 214 ft 0 kts 171°
2026-05-04 12:42 51.14644 -0.21330 214 ft 1 kts 171°
2026-05-04 12:43 51.14608 -0.21317 213 ft 12 kts 162°
2026-05-04 12:43 51.14527 -0.21233 219 ft 14 kts 126°
2026-05-04 12:43 51.14521 -0.21160 212 ft 0 kts 77°
2026-05-04 12:44 51.14550 -0.20958 215 ft 53 kts 77°
2026-05-04 12:44 51.14686 -0.19961 219 ft 129 kts 78°
2026-05-04 12:44 51.14913 -0.18235 251 ft 183 kts 77°
2026-05-04 12:45 51.15202 -0.16197 855 ft 187 kts 78°
2026-05-04 12:45 51.15472 -0.14148 1666 ft 194 kts 78°
2026-05-04 12:45 51.15746 -0.11996 2305 ft 201 kts 78°
2026-05-04 12:45 51.16018 -0.09761 2908 ft 214 kts 79°
2026-05-04 12:46 51.16090 -0.07295 3099 ft 244 kts 107°
2026-05-04 12:46 51.15124 -0.05009 3576 ft 260 kts 142°
2026-05-04 12:46 51.13444 -0.03976 4408 ft 260 kts 176°
2026-05-04 12:46 51.11631 -0.03810 5195 ft 266 kts 174°
2026-05-04 12:47 51.09785 -0.03390 6042 ft 267 kts 170°
2026-05-04 12:47 51.07990 -0.02837 7055 ft 264 kts 167°
2026-05-04 12:47 51.06193 -0.02085 7726 ft 270 kts 163°
2026-05-04 12:47 51.04378 -0.01164 8424 ft 280 kts 162°
2026-05-04 12:48 51.02526 -0.00199 9307 ft 279 kts 163°
2026-05-04 12:48 51.00667 0.00692 10193 ft 279 kts 164°
2026-05-04 12:48 50.98808 0.01567 10968 ft 286 kts 164°
2026-05-04 12:48 50.96847 0.02484 10779 ft 298 kts 165°
2026-05-04 12:49 50.94859 0.03393 10613 ft 293 kts 165°
2026-05-04 12:49 50.92936 0.04286 10640 ft 287 kts 165°
2026-05-04 12:49 50.90985 0.05199 10751 ft 303 kts 164°
2026-05-04 12:49 50.88885 0.06184 10948 ft 326 kts 164°
2026-05-04 12:50 50.86628 0.07243 11118 ft 350 kts 164°
2026-05-04 12:50 50.84235 0.08372 11591 ft 366 kts 164°
2026-05-04 12:50 50.81757 0.09480 12472 ft 374 kts 168°
2026-05-04 12:50 50.79171 0.10100 13507 ft 379 kts 176°
2026-05-04 12:51 50.76527 0.10246 14530 ft 382 kts 179°
2026-05-04 12:51 50.73853 0.10368 15535 ft 386 kts 178°
2026-05-04 12:51 50.71153 0.10502 16507 ft 391 kts 178°
2026-05-04 12:51 50.68438 0.10643 17348 ft 394 kts 178°
2026-05-04 12:52 50.65690 0.10793 18326 ft 398 kts 178°
2026-05-04 12:52 50.62904 0.10948 19139 ft 404 kts 178°
2026-05-04 12:52 50.60111 0.11107 19930 ft 408 kts 178°
2026-05-04 12:52 50.57261 0.11270 20786 ft 411 kts 179°
2026-05-04 12:53 50.54391 0.11434 21656 ft 414 kts 179°
2026-05-04 12:53 50.51508 0.11600 22457 ft 418 kts 179°
2026-05-04 12:53 50.48581 0.11767 23066 ft 425 kts 179°
2026-05-04 12:53 50.45604 0.11937 23710 ft 429 kts 179°
2026-05-04 12:54 50.42620 0.12108 24486 ft 429 kts 179°
2026-05-04 12:54 50.39653 0.12278 25238 ft 429 kts 179°
2026-05-04 12:54 50.36661 0.12450 25886 ft 432 kts 179°
2026-05-04 12:54 50.33640 0.12622 26428 ft 437 kts 179°
2026-05-04 12:55 50.30590 0.12796 27000 ft 441 kts 179°
2026-05-04 12:55 50.27509 0.12971 27558 ft 444 kts 179°
2026-05-04 12:55 50.24415 0.13147 28121 ft 447 kts 179°
2026-05-04 12:55 50.21295 0.13325 28646 ft 450 kts 179°
2026-05-04 12:56 50.18161 0.13502 29156 ft 452 kts 179°
2026-05-04 12:56 50.15006 0.13681 29657 ft 454 kts 179°
2026-05-04 12:56 50.11845 0.13860 30146 ft 455 kts 179°
2026-05-04 12:56 50.08679 0.14039 30661 ft 454 kts 179°
2026-05-04 12:57 50.05530 0.14217 31185 ft 453 kts 179°
2026-05-04 12:57 50.02385 0.14395 31682 ft 452 kts 179°
2026-05-04 12:57 49.99244 0.14572 32163 ft 451 kts 179°
2026-05-04 12:57 49.96107 0.14748 32625 ft 451 kts 178°
2026-05-04 12:58 49.92970 0.14924 33025 ft 452 kts 178°
2026-05-04 12:58 49.86623 0.15279 33010 ft 455 kts 178°
2026-05-04 12:59 49.80349 0.15630 32999 ft 449 kts 178°
2026-05-04 12:59 49.74098 0.15978 33002 ft 450 kts 178°
2026-05-04 13:00 49.67858 0.16669 32995 ft 451 kts 172°
2026-05-04 13:00 49.61739 0.18890 33008 ft 453 kts 166°
2026-05-04 13:01 49.55644 0.21420 32994 ft 454 kts 166°
2026-05-04 13:01 49.49530 0.23899 32991 ft 454 kts 167°
2026-05-04 13:02 49.43422 0.26357 32999 ft 454 kts 167°
2026-05-04 13:02 49.37317 0.28808 32993 ft 453 kts 167°
2026-05-04 13:03 49.31224 0.31249 32991 ft 453 kts 167°
2026-05-04 13:03 49.25142 0.33770 32985 ft 453 kts 166°
2026-05-04 13:04 49.19119 0.36323 32969 ft 452 kts 166°
2026-05-04 13:04 49.13056 0.38879 32962 ft 452 kts 166°
2026-05-04 13:05 49.06989 0.41418 32963 ft 452 kts 166°
2026-05-04 13:05 49.00924 0.43947 32954 ft 452 kts 166°
2026-05-04 13:06 48.94868 0.46466 32961 ft 451 kts 166°
2026-05-04 13:06 48.89792 0.48574 32965 ft 451 kts 166°
2026-05-04 13:07 48.83734 0.51084 32961 ft 451 kts 166°
2026-05-04 13:07 48.77671 0.53581 32963 ft 451 kts 166°
2026-05-04 13:08 48.71587 0.55965 32960 ft 452 kts 167°
2026-05-04 13:08 48.65500 0.58323 32961 ft 452 kts 167°
2026-05-04 13:09 48.59408 0.60695 32963 ft 452 kts 167°
2026-05-04 13:09 48.53315 0.63066 32957 ft 452 kts 167°
2026-05-04 13:10 48.47230 0.65490 32957 ft 453 kts 166°
2026-05-04 13:10 48.41153 0.67978 32962 ft 452 kts 166°
2026-05-04 13:11 48.35116 0.70435 32957 ft 452 kts 166°
2026-05-04 13:11 48.29038 0.72891 32958 ft 452 kts 166°
2026-05-04 13:12 48.22967 0.75331 32960 ft 452 kts 167°
2026-05-04 13:12 48.16891 0.77723 32953 ft 451 kts 167°
2026-05-04 13:13 48.10814 0.80105 32952 ft 451 kts 167°
2026-05-04 13:13 48.04743 0.82485 32950 ft 451 kts 167°
2026-05-04 13:14 47.98672 0.84862 32927 ft 451 kts 167°
2026-05-04 13:14 47.92600 0.87233 32941 ft 451 kts 167°
2026-05-04 13:15 47.86531 0.89598 32942 ft 451 kts 167°
2026-05-04 13:15 47.80454 0.91958 32945 ft 451 kts 167°
2026-05-04 13:16 47.74374 0.94309 32932 ft 452 kts 167°
2026-05-04 13:16 47.68293 0.96655 32928 ft 452 kts 167°
2026-05-04 13:17 47.62209 0.98999 32919 ft 452 kts 167°
2026-05-04 13:17 47.56123 1.01337 32925 ft 451 kts 167°
2026-05-04 13:18 47.50044 1.03668 32919 ft 451 kts 167°
2026-05-04 13:18 47.43930 1.05760 32930 ft 450 kts 173°
2026-05-04 13:19 47.37691 1.06377 32914 ft 449 kts 182°
2026-05-04 13:19 47.31452 1.06169 32916 ft 448 kts 182°
2026-05-04 13:20 47.25239 1.06002 32924 ft 447 kts 182°
2026-05-04 13:20 47.19022 1.05861 32925 ft 447 kts 182°
2026-05-04 13:21 47.12813 1.05726 32925 ft 446 kts 182°
2026-05-04 13:21 47.06610 1.05589 32926 ft 445 kts 182°
2026-05-04 13:22 47.00461 1.05437 32920 ft 445 kts 182°
2026-05-04 13:22 46.94279 1.05167 32926 ft 444 kts 183°
2026-05-04 13:23 46.88118 1.04878 32924 ft 443 kts 183°
2026-05-04 13:23 46.81959 1.04604 32926 ft 443 kts 183°
2026-05-04 13:24 46.75799 1.04338 32926 ft 442 kts 183°
2026-05-04 13:24 46.69645 1.04074 32925 ft 442 kts 183°
2026-05-04 13:25 46.60411 1.03676 32943 ft 443 kts 183°
2026-05-04 13:25 46.54237 1.03463 32924 ft 444 kts 180°
2026-05-04 13:26 46.48111 1.04400 32923 ft 445 kts 171°
2026-05-04 13:26 46.42071 1.06444 32930 ft 446 kts 169°
2026-05-04 13:27 46.36051 1.08490 32924 ft 445 kts 169°
2026-05-04 13:27 46.30012 1.10514 32919 ft 445 kts 170°
2026-05-04 13:28 46.23979 1.12520 32926 ft 445 kts 170°
2026-05-04 13:28 46.17950 1.14520 32922 ft 445 kts 170°
2026-05-04 13:29 46.11923 1.16514 32925 ft 444 kts 170°
2026-05-04 13:29 46.05889 1.18507 32939 ft 445 kts 170°
2026-05-04 13:30 45.99859 1.20494 32934 ft 445 kts 170°
2026-05-04 13:30 45.93854 1.22468 32926 ft 445 kts 170°
2026-05-04 13:31 45.87837 1.24443 32941 ft 444 kts 170°
2026-05-04 13:31 45.81815 1.26414 32940 ft 444 kts 170°
2026-05-04 13:32 45.75793 1.28381 32929 ft 444 kts 170°
2026-05-04 13:32 45.69764 1.30346 32927 ft 444 kts 170°
2026-05-04 13:33 45.63781 1.32292 32928 ft 444 kts 170°
2026-05-04 13:33 45.57754 1.34248 32928 ft 444 kts 170°
2026-05-04 13:34 45.51719 1.36204 32923 ft 445 kts 171°
2026-05-04 13:34 45.45674 1.38156 32928 ft 446 kts 171°
2026-05-04 13:35 45.36599 1.41079 32916 ft 446 kts 171°
2026-05-04 13:36 45.30541 1.43026 32922 ft 446 kts 171°
2026-05-04 13:36 45.24479 1.44970 32912 ft 447 kts 171°
2026-05-04 13:37 45.18417 1.46911 32942 ft 448 kts 171°
2026-05-04 13:37 45.12327 1.48856 32904 ft 447 kts 171°
2026-05-04 13:38 45.06280 1.50784 32913 ft 444 kts 171°
2026-05-04 13:38 45.00261 1.52699 32912 ft 442 kts 171°
2026-05-04 13:39 44.94254 1.54604 32914 ft 443 kts 171°
2026-05-04 13:39 44.88226 1.56512 32940 ft 445 kts 171°
2026-05-04 13:40 44.82163 1.58426 32922 ft 448 kts 171°
2026-05-04 13:40 44.76048 1.60351 32900 ft 452 kts 171°
2026-05-04 13:41 44.69918 1.62285 32920 ft 450 kts 171°
2026-05-04 13:41 44.63812 1.64203 32913 ft 449 kts 171°
2026-05-04 13:42 44.54699 1.67056 32930 ft 446 kts 171°
2026-05-04 13:42 44.48672 1.68937 32917 ft 447 kts 171°
2026-05-04 13:43 44.42614 1.70825 32930 ft 447 kts 171°
2026-05-04 13:43 44.36544 1.72713 32917 ft 447 kts 171°
2026-05-04 13:44 44.30455 1.74602 32930 ft 448 kts 172°
2026-05-04 13:44 44.24327 1.76087 32924 ft 447 kts 175°
2026-05-04 13:45 44.18181 1.77410 32921 ft 447 kts 175°
2026-05-04 13:45 44.12055 1.78745 32915 ft 447 kts 175°
2026-05-04 13:46 44.05915 1.80094 32913 ft 447 kts 175°
2026-05-04 13:46 43.99775 1.81442 32893 ft 446 kts 175°
2026-05-04 13:47 43.93641 1.82631 32900 ft 443 kts 180°
2026-05-04 13:47 43.87497 1.83196 32907 ft 442 kts 180°
2026-05-04 13:48 43.81400 1.83766 32892 ft 442 kts 181°
2026-05-04 13:48 43.75267 1.84357 32908 ft 442 kts 181°
2026-05-04 13:49 43.69140 1.84952 32905 ft 441 kts 181°
2026-05-04 13:49 43.63012 1.85546 32905 ft 441 kts 181°
2026-05-04 13:50 43.56895 1.86137 32903 ft 440 kts 181°
2026-05-04 13:50 43.50792 1.86725 32907 ft 439 kts 181°
2026-05-04 13:51 43.44707 1.87311 32915 ft 438 kts 181°
2026-05-04 13:51 43.38632 1.87894 32904 ft 437 kts 181°
2026-05-04 13:52 43.29533 1.88767 32919 ft 437 kts 181°
2026-05-04 13:53 43.24496 1.89252 32917 ft 437 kts 181°
2026-05-04 13:53 43.18427 1.89835 32906 ft 437 kts 181°
2026-05-04 13:54 43.09332 1.90707 32920 ft 436 kts 181°
2026-05-04 13:55 43.00244 1.91573 32870 ft 436 kts 181°
2026-05-04 13:55 42.91161 1.92439 32906 ft 437 kts 181°
2026-05-04 13:56 42.85082 1.93016 32901 ft 439 kts 181°
2026-05-04 13:57 42.75936 1.93884 32905 ft 440 kts 181°
2026-05-04 13:58 42.63731 1.95899 32911 ft 449 kts 171°
2026-05-04 13:58 42.54712 1.99244 32904 ft 447 kts 171°
2026-05-04 13:59 42.48701 2.01412 32924 ft 447 kts 172°
2026-05-04 14:00 42.39684 2.04650 32945 ft 444 kts 171°
2026-05-04 14:00 42.30696 2.07857 32917 ft 446 kts 172°
2026-05-04 14:01 42.24686 2.09983 32926 ft 447 kts 172°
2026-05-04 14:02 42.15668 2.13178 32910 ft 447 kts 172°
2026-05-04 14:02 42.09657 2.15301 32916 ft 447 kts 172°
2026-05-04 14:03 42.03646 2.17414 32933 ft 447 kts 172°
2026-05-04 14:03 41.97632 2.19536 32906 ft 446 kts 172°
2026-05-04 14:04 41.88669 2.22675 32921 ft 445 kts 172°
2026-05-04 14:04 41.82679 2.24774 32940 ft 445 kts 172°
2026-05-04 14:05 41.73749 2.27893 32927 ft 446 kts 172°
2026-05-04 14:06 41.67792 2.29974 32930 ft 445 kts 173°
2026-05-04 14:06 41.61857 2.32043 32945 ft 442 kts 173°
2026-05-04 14:07 41.55915 2.34109 32947 ft 441 kts 173°
2026-05-04 14:07 41.49972 2.36167 32951 ft 442 kts 173°
2026-05-04 14:08 41.44024 2.38228 32947 ft 441 kts 173°
2026-05-04 14:08 41.38074 2.40287 32948 ft 441 kts 173°
2026-05-04 14:09 41.29138 2.43369 32940 ft 443 kts 173°
2026-05-04 14:10 41.20196 2.46444 32947 ft 444 kts 172°
2026-05-04 14:10 41.14225 2.48494 32927 ft 444 kts 172°
2026-05-04 14:11 41.08233 2.50547 32922 ft 445 kts 172°
2026-05-04 14:11 41.02181 2.52609 31843 ft 458 kts 172°
2026-05-04 14:11 40.99095 2.53659 30942 ft 458 kts 172°
2026-05-04 14:12 40.96005 2.54715 30040 ft 458 kts 171°
2026-05-04 14:12 40.92940 2.55765 29264 ft 453 kts 171°
2026-05-04 14:12 40.86900 2.57831 27840 ft 443 kts 171°
2026-05-04 14:13 40.83931 2.58842 27201 ft 439 kts 172°
2026-05-04 14:13 40.80983 2.59843 26536 ft 435 kts 172°
2026-05-04 14:13 40.78065 2.60832 25903 ft 432 kts 172°
2026-05-04 14:13 40.75168 2.61812 25283 ft 428 kts 172°
2026-05-04 14:14 40.72287 2.62787 24673 ft 426 kts 172°
2026-05-04 14:14 40.66579 2.64715 23421 ft 422 kts 172°
2026-05-04 14:14 40.63777 2.65660 22731 ft 420 kts 171°
2026-05-04 14:15 40.58163 2.67553 21475 ft 413 kts 171°
2026-05-04 14:15 40.52592 2.69429 20305 ft 407 kts 171°
2026-05-04 14:16 40.47322 2.71917 19198 ft 409 kts 156°
2026-05-04 14:16 40.44861 2.73775 18637 ft 408 kts 154°
2026-05-04 14:17 40.39965 2.77499 17418 ft 405 kts 155°
2026-05-04 14:17 40.37520 2.79310 16830 ft 402 kts 155°
2026-05-04 14:17 40.32654 2.82843 15694 ft 397 kts 155°
2026-05-04 14:18 40.30238 2.84583 15126 ft 395 kts 155°
2026-05-04 14:18 40.25461 2.88021 14000 ft 383 kts 155°
2026-05-04 14:19 40.20816 2.91359 12829 ft 378 kts 155°
2026-05-04 14:19 40.18519 2.93009 12273 ft 376 kts 155°
2026-05-04 14:19 40.16239 2.94646 11729 ft 373 kts 155°
2026-05-04 14:19 40.14007 2.96251 11189 ft 364 kts 155°
2026-05-04 14:20 40.11793 2.97840 10849 ft 358 kts 155°
2026-05-04 14:20 40.09664 2.99370 10685 ft 336 kts 155°
2026-05-04 14:20 40.07712 3.00778 10518 ft 304 kts 155°
2026-05-04 14:21 40.04335 3.03203 10266 ft 252 kts 156°
2026-05-04 14:21 40.02811 3.04287 10235 ft 256 kts 156°
2026-05-04 14:21 40.01192 3.05429 10137 ft 272 kts 156°
2026-05-04 14:21 39.99520 3.06619 10017 ft 274 kts 155°
2026-05-04 14:22 39.97859 3.07807 9777 ft 272 kts 156°
2026-05-04 14:22 39.96201 3.08991 9446 ft 271 kts 156°
2026-05-04 14:22 39.94563 3.10160 9131 ft 269 kts 156°
2026-05-04 14:22 39.92905 3.11195 8788 ft 258 kts 170°
2026-05-04 14:23 39.89427 3.11056 8228 ft 259 kts 188°
2026-05-04 14:23 39.87623 3.10829 7922 ft 262 kts 188°
2026-05-04 14:23 39.85809 3.10603 7591 ft 262 kts 188°
2026-05-04 14:24 39.83975 3.10374 7262 ft 261 kts 188°
2026-05-04 14:24 39.82185 3.10150 6955 ft 256 kts 188°
2026-05-04 14:24 39.80503 3.09945 6652 ft 237 kts 188°
2026-05-04 14:24 39.78907 3.09749 6337 ft 219 kts 189°
2026-05-04 14:25 39.77444 3.09569 6057 ft 204 kts 189°
2026-05-04 14:25 39.74629 3.09217 5588 ft 208 kts 189°
2026-05-04 14:25 39.73194 3.09038 5329 ft 206 kts 189°
2026-05-04 14:26 39.71830 3.08683 5037 ft 194 kts 210°
2026-05-04 14:26 39.70871 3.07536 4846 ft 186 kts 231°
2026-05-04 14:26 39.70037 3.06197 4595 ft 194 kts 230°
2026-05-04 14:26 39.69185 3.04827 4345 ft 197 kts 232°
2026-05-04 14:27 39.68392 3.03378 4095 ft 195 kts 236°
2026-05-04 14:27 39.67687 3.01950 3819 ft 180 kts 237°
2026-05-04 14:27 39.67054 3.00621 3764 ft 172 kts 237°
2026-05-04 14:27 39.66430 2.99300 3652 ft 172 kts 238°
2026-05-04 14:28 39.65812 2.97986 3571 ft 169 kts 238°
2026-05-04 14:28 39.65200 2.96682 3507 ft 169 kts 238°
2026-05-04 14:28 39.64581 2.95367 3319 ft 172 kts 238°
2026-05-04 14:28 39.63961 2.94047 3148 ft 170 kts 237°
2026-05-04 14:29 39.62786 2.91552 2730 ft 151 kts 240°
2026-05-04 14:29 39.61792 2.89437 2411 ft 134 kts 236°
2026-05-04 14:30 39.61301 2.88408 2208 ft 133 kts 237°
2026-05-04 14:30 39.60833 2.87403 2014 ft 128 kts 238°
2026-05-04 14:30 39.59892 2.85398 1688 ft 130 kts 237°
2026-05-04 14:31 39.59424 2.84403 1483 ft 129 kts 238°
2026-05-04 14:31 39.58488 2.82419 1170 ft 129 kts 236°
2026-05-04 14:32 39.57576 2.80481 817 ft 132 kts 237°
2026-05-04 14:32 39.57086 2.79444 698 ft 134 kts 237°
2026-05-04 14:32 39.56612 2.78419 463 ft 134 kts 236°
2026-05-04 14:32 39.56106 2.77371 276 ft 137 kts 237°
2026-05-04 14:33 39.55628 2.76352 115 ft 133 kts 237°
2026-05-04 14:33 39.55167 2.75388 43 ft 115 kts 239°
2026-05-04 14:33 39.54853 2.74715 43 ft 61 kts 238°
2026-05-04 14:33 39.54687 2.74367 43 ft 41 kts 238°
2026-05-04 14:34 39.54567 2.74068 43 ft 35 kts 256°
2026-05-04 14:34 39.54552 2.73885 43 ft 18 kts 268°
2026-05-04 14:34 39.54551 2.73786 43 ft 5 kts 273°
2026-05-04 14:34 39.54568 2.73743 43 ft 5 kts 313°
2026-05-04 14:35 39.54602 2.73744 43 ft 5 kts 41°
2026-05-04 14:35 39.54628 2.73787 43 ft 7 kts 56°
2026-05-04 14:35 39.54654 2.73841 43 ft 7 kts 58°
2026-05-04 14:35 39.54683 2.73901 43 ft 8 kts 58°
2026-05-04 14:36 39.54715 2.73968 43 ft 9 kts 58°
2026-05-04 14:36 39.54751 2.74042 43 ft 10 kts 58°
2026-05-04 14:36 39.54786 2.74113 43 ft 6 kts 56°
2026-05-04 14:36 39.54825 2.74126 43 ft 6 kts 346°
2026-05-04 14:37 39.54864 2.74097 43 ft 8 kts 328°
2026-05-04 14:37 39.54947 2.74030 43 ft 22 kts 327°
2026-05-04 14:37 39.55121 2.73891 43 ft 37 kts 329°
2026-05-04 14:37 39.55364 2.73700 43 ft 31 kts 329°
2026-05-04 14:38 39.55476 2.73614 43 ft 7 kts 329°
2026-05-04 14:38 39.55493 2.73572 43 ft 6 kts 258°
2026-05-04 14:38 39.55482 2.73533 43 ft 1 kts 247°
2026-05-04 14:38 39.55481 2.73532 43 ft 0 kts 247°
2026-05-04 14:39 39.55481 2.73531 43 ft 1 kts 247°
2026-05-04 14:39 39.55473 2.73497 43 ft 4 kts 265°
2026-05-04 14:40 39.55499 2.73453 43 ft 4 kts 327°
2026-05-04 14:40 39.55504 2.73448 43 ft 0 kts 327°
2026-05-04 14:40 39.55509 2.73444 43 ft 1 kts 327°
2026-05-04 14:40 39.55516 2.73435 43 ft 2 kts 310°
2026-05-04 14:41 39.55521 2.73412 43 ft 3 kts 281°
2026-05-04 14:41 39.55523 2.73401 43 ft 0 kts 280°